Airfield :
LOGIN :

Register | Disclaimer

   EN    FR    IT 

 










Legend :    VFR   Marginal VFR   IFR   Intensive IFR   Very Intensive IFR
Visi :
Ceiling :
>= 8 km
>= 3000ft
5 to 8 km
1000 to 3000 ft
1500m to 5 km
500 to 1000 ft
800 to 1500m
200 to 500 ft
< 800m
< 200 ft
Symbols :   Thunderstorms  Fog  Heavy snow  Heavy precipitations  Wind > 20 kt
SIGMETs :     Misc.  Thunderstorms  Icing  Turbulence  Mountain Waves  Volcanic Ashes







- Airport Elevation : 38 ft
- IATA code : TRE
- Download approach charts


EGPU - Tiree

CURRENT METAR :
  • 200120Z AUTO 29010KT 9999 FEW030/// 06/04 Q1020 RERA

EXPIRED METARs :
  • 200050Z AUTO 29015KT 9999 -RA FEW030/// SCT046/// 07/05 Q1020
  • 200020Z AUTO 28013KT 9999 NCD 07/04 Q1020 RERA
  • 192350Z AUTO 27015KT 9999 -RA NCD 07/04 Q1020
  • 192320Z AUTO 28013KT 9999 NCD 07/04 Q1020
  • 192250Z AUTO 27011KT 9999 FEW027/// 07/06 Q1019
  • 192220Z AUTO 26009KT 230V320 7000 FEW036/// 06/06 Q1019

Expired Forecast.
No reported NOTAMs for that airfield.



MET'MAP, your aeronautical weather chart ! - Copyright ORBIFLY December 2007 - Disclaimer

ORBIFLY MET'MAP TEAM :

Programming & Development : Alexandra Zaïnal
Concept & Development : Baudouin d'Aumeries
Co-Development & Prog : Marc-Olivier Méhu
Technical & hardware support : Manuel Goepfert

Contact : metmap@orbifly.com




SOURCES & CREDITS :

   NOAA